This is the latest recevied weather packets stored in our database for station/object IZ6EGX-13. If no packets are shown the sender has not sent any weather packets the latest 10 day(s).
| Time | Temp. | Humidity | Pressure | Rain* | Wind** | Luminosity | Snow |
|---|---|---|---|---|---|---|---|
| 1777800386 | 21.11° C | 41% | 1019.8 hPa | 0 mm | - | - | - |
| 1777799786 | 21.11° C | 41% | 1019.8 hPa | 0 mm | - | - | - |
| 1777799186 | 21.67° C | 38% | 1019.8 hPa | 0 mm | - | - | - |
| 1777798586 | 21.11° C | 36% | 1019.9 hPa | 0 mm | - | - | - |
| 1777797986 | 21.67° C | 35% | 1019.9 hPa | 0 mm | - | - | - |
| 1777797386 | 21.67° C | 35% | 1019.9 hPa | 0 mm | - | - | - |
| 1777796786 | 20.56° C | 36% | 1020 hPa | 0 mm | - | - | - |
| 1777796186 | 21.67° C | 36% | 1019.9 hPa | 0 mm | - | - | - |
| 1777795586 | 22.22° C | 34% | 1019.9 hPa | 0 mm | - | - | - |
| 1777794986 | 21.67° C | 34% | 1020 hPa | 0 mm | - | - | - |
| 1777794386 | 21.67° C | 36% | 1020 hPa | 0 mm | - | - | - |
| 1777793786 | 21.11° C | 40% | 1020 hPa | 0 mm | - | - | - |
| 1777793186 | 21.11° C | 40% | 1020 hPa | 0 mm | - | - | - |
| 1777792586 | 20.56° C | 40% | 1020.1 hPa | 0 mm | - | - | - |
| 1777791986 | 20° C | 41% | 1020.1 hPa | 0 mm | - | - | - |
| 1777791386 | 19.44° C | 40% | 1020.2 hPa | 0 mm | - | - | - |
| 1777790786 | 19.44° C | 41% | 1020.2 hPa | 0 mm | - | - | - |
| 1777790186 | 19.44° C | 40% | 1020.2 hPa | 0 mm | - | - | - |
| 1777789586 | 18.89° C | 40% | 1020.2 hPa | 0 mm | - | - | - |
| 1777788986 | 18.33° C | 40% | 1020.2 hPa | 0 mm | - | - | - |
| 1777788385 | 18.33° C | 40% | 1020.1 hPa | 0 mm | - | - | - |
| 1777787786 | 18.33° C | 39% | 1020.1 hPa | 0 mm | - | - | - |
| 1777787186 | 17.22° C | 39% | 1020.1 hPa | 0 mm | - | - | - |
| 1777786586 | 17.22° C | 40% | 1020.2 hPa | 0 mm | - | - | - |
| 1777785985 | 16.67° C | 41% | 1020.2 hPa | 0 mm | - | - | - |
* Rain latest hour (hover to see other rain measurements)
** Current wind speed in m/s (hover to see current wind gust speed)